Time,TemperatureF,DewpointF,PressureIn,WindDirection,WindDirectionDegrees,WindSpeedMPH,WindSpeedGustMPH,Humidity,HourlyPrecipIn,Conditions,Clouds,dailyrainin,SoftwareType,DateUTC
2013-03-09 00:00:00,33.8,12.0,30.06,NE,53,0.0,0.0,40,0.00,,,0.00,Wunderground v.1.15,2013-03-09 05:00:00,
2013-03-09 00:05:00,33.7,12.5,30.06,NE,53,0.0,0.0,41,0.00,,,0.00,Wunderground v.1.15,2013-03-09 05:05:00,
2013-03-09 00:10:00,33.7,12.5,30.05,NE,53,0.0,0.0,41,0.00,,,0.00,Wunderground v.1.15,2013-03-09 05:10:00,
2013-03-09 00:20:00,33.8,13.1,30.05,NE,53,1.0,1.0,42,0.00,,,0.00,Wunderground v.1.15,2013-03-09 05:20:00,
2013-03-09 00:30:00,33.7,15.1,30.06,NE,53,0.0,0.0,46,0.00,,,0.00,Wunderground v.1.15,2013-03-09 05:30:00,
2013-03-09 00:40:00,33.5,13.4,30.05,NE,54,0.0,1.0,43,0.00,,,0.00,Wunderground v.1.15,2013-03-09 05:40:00,
2013-03-09 00:50:00,33.5,14.4,30.05,NE,54,0.0,0.0,45,0.00,,,0.00,Wunderground v.1.15,2013-03-09 05:50:00,
2013-03-09 01:00:00,33.2,12.6,30.06,NE,53,0.0,0.0,42,0.00,,,0.00,Wunderground v.1.15,2013-03-09 06:00:00,
2013-03-09 01:10:00,33.1,12.5,30.05,NE,53,0.0,0.0,42,0.00,,,0.00,Wunderground v.1.15,2013-03-09 06:10:00,
2013-03-09 01:20:00,32.9,12.3,30.06,NE,53,0.0,0.0,42,0.00,,,0.00,Wunderground v.1.15,2013-03-09 06:20:00,
2013-03-09 01:25:00,32.9,14.4,30.06,NE,53,0.0,0.0,46,0.00,,,0.00,Wunderground v.1.15,2013-03-09 06:25:00,
2013-03-09 01:35:00,33.1,14.5,30.06,NE,53,0.0,0.0,46,0.00,,,0.00,Wunderground v.1.15,2013-03-09 06:35:00,
2013-03-09 01:45:00,33.2,14.6,30.06,NE,53,0.0,0.0,46,0.00,,,0.00,Wunderground v.1.15,2013-03-09 06:45:00,
2013-03-09 01:55:00,33.4,15.3,30.05,NE,53,0.0,0.0,47,0.00,,,0.00,Wunderground v.1.15,2013-03-09 06:55:00,
2013-03-09 02:00:00,33.4,14.8,30.05,NE,53,0.0,0.0,46,0.00,,,0.00,Wunderground v.1.15,2013-03-09 07:00:00,
2013-03-09 02:05:00,33.4,14.3,30.05,NE,53,0.0,0.0,45,0.00,,,0.00,Wunderground v.1.15,2013-03-09 07:05:00,
2013-03-09 02:10:00,33.2,13.6,30.05,NE,53,0.0,0.0,44,0.00,,,0.00,Wunderground v.1.15,2013-03-09 07:10:00,
2013-03-09 02:20:00,33.2,11.5,30.05,NE,53,0.0,0.0,40,0.00,,,0.00,Wunderground v.1.15,2013-03-09 07:20:00,
2013-03-09 02:30:00,33.2,10.3,30.04,NE,53,0.0,0.0,38,0.00,,,0.00,Wunderground v.1.15,2013-03-09 07:30:00,
2013-03-09 02:40:00,33.2,8.5,30.04,NE,53,0.0,0.0,35,0.00,,,0.00,Wunderground v.1.15,2013-03-09 07:40:00,
2013-03-09 02:50:00,33.1,10.8,30.03,NE,53,0.0,0.0,39,0.00,,,0.00,Wunderground v.1.15,2013-03-09 07:50:00,
2013-03-09 02:55:00,32.8,9.3,30.03,NE,53,0.0,0.0,37,0.00,,,0.00,Wunderground v.1.15,2013-03-09 07:55:00,
2013-03-09 03:05:00,32.9,8.8,30.03,NE,53,0.0,0.0,36,0.00,,,0.00,Wunderground v.1.15,2013-03-09 08:05:00,
2013-03-09 03:10:00,32.9,6.9,30.03,NE,53,0.0,0.0,33,0.00,,,0.00,Wunderground v.1.15,2013-03-09 08:10:00,
2013-03-09 03:20:00,33.5,6.0,30.02,NE,53,0.0,0.0,31,0.00,,,0.00,Wunderground v.1.15,2013-03-09 08:20:00,
2013-03-09 03:30:00,34.3,3.7,30.02,NE,53,0.0,0.0,27,0.00,,,0.00,Wunderground v.1.15,2013-03-09 08:30:00,
2013-03-09 03:40:00,34.9,3.4,30.01,NE,53,0.0,0.0,26,0.00,,,0.00,Wunderground v.1.15,2013-03-09 08:40:00,
2013-03-09 03:45:00,35.2,3.7,30.01,NE,53,0.0,0.0,26,0.00,,,0.00,Wunderground v.1.15,2013-03-09 08:45:00,
2013-03-09 03:55:00,35.2,2.8,30.01,NE,53,0.0,0.0,25,0.00,,,0.00,Wunderground v.1.15,2013-03-09 08:55:00,
2013-03-09 04:00:00,35.3,3.8,30.01,NE,53,0.0,0.0,26,0.00,,,0.00,Wunderground v.1.15,2013-03-09 09:00:00,
2013-03-09 04:10:00,35.2,5.3,30.02,NE,53,0.0,0.0,28,0.00,,,0.00,Wunderground v.1.15,2013-03-09 09:10:00,
2013-03-09 04:20:00,35.0,5.9,30.02,NE,53,0.0,0.0,29,0.00,,,0.00,Wunderground v.1.15,2013-03-09 09:20:00,
2013-03-09 04:30:00,35.6,7.9,30.02,NE,53,0.0,0.0,31,0.00,,,0.00,Wunderground v.1.15,2013-03-09 09:30:00,
2013-03-09 04:40:00,36.3,10.6,30.02,NE,53,0.0,0.0,34,0.00,,,0.00,Wunderground v.1.15,2013-03-09 09:40:00,
2013-03-09 04:50:00,36.6,11.5,30.02,NE,53,0.0,0.0,35,0.00,,,0.00,Wunderground v.1.15,2013-03-09 09:50:00,
2013-03-09 05:00:00,36.6,9.5,30.02,NE,53,0.0,0.0,32,0.00,,,0.00,Wunderground v.1.15,2013-03-09 10:00:00,
2013-03-09 05:10:00,36.6,5.7,30.03,NE,53,0.0,0.0,27,0.00,,,0.00,Wunderground v.1.15,2013-03-09 10:10:00,
2013-03-09 05:20:00,37.2,7.0,30.03,NE,53,0.0,0.0,28,0.00,,,0.00,Wunderground v.1.15,2013-03-09 10:20:00,
2013-03-09 05:30:00,37.3,5.5,30.03,NE,53,0.0,0.0,26,0.00,,,0.00,Wunderground v.1.15,2013-03-09 10:30:00,
2013-03-09 05:35:00,37.6,5.7,30.03,NE,53,0.0,0.0,26,0.00,,,0.00,Wunderground v.1.15,2013-03-09 10:35:00,
2013-03-09 05:45:00,37.9,6.0,30.03,NE,53,0.0,0.0,26,0.00,,,0.00,Wunderground v.1.15,2013-03-09 10:45:00,
2013-03-09 05:50:00,37.9,6.0,30.03,NE,53,0.0,0.0,26,0.00,,,0.00,Wunderground v.1.15,2013-03-09 10:50:00,
2013-03-09 06:00:00,37.8,8.3,30.03,NE,53,0.0,1.0,29,0.00,,,0.00,Wunderground v.1.15,2013-03-09 11:00:00,
2013-03-09 06:10:00,37.8,7.6,30.05,NE,53,0.0,0.0,28,0.00,,,0.00,Wunderground v.1.15,2013-03-09 11:10:00,
2013-03-09 06:20:00,37.6,8.9,30.06,NE,53,0.0,0.0,30,0.00,,,0.00,Wunderground v.1.15,2013-03-09 11:20:00,
2013-03-09 06:30:00,37.2,7.8,30.06,NE,53,0.0,0.0,29,0.00,,,0.00,Wunderground v.1.15,2013-03-09 11:30:00,
2013-03-09 06:40:00,37.0,9.1,30.06,NE,53,0.0,0.0,31,0.00,,,0.00,Wunderground v.1.15,2013-03-09 11:40:00,
2013-03-09 06:50:00,36.3,10.6,30.07,NE,53,0.0,0.0,34,0.00,,,0.00,Wunderground v.1.15,2013-03-09 11:50:00,
2013-03-09 07:00:00,35.9,10.2,30.08,NE,53,0.0,0.0,34,0.00,,,0.00,Wunderground v.1.15,2013-03-09 12:00:00,
2013-03-09 07:10:00,35.6,11.2,30.08,NE,54,0.0,0.0,36,0.00,,,0.00,Wunderground v.1.15,2013-03-09 12:10:00,
2013-03-09 07:15:00,35.6,11.2,30.08,NE,53,0.0,1.0,36,0.00,,,0.00,Wunderground v.1.15,2013-03-09 12:15:00,
2013-03-09 07:20:00,35.9,10.9,30.08,NE,53,0.0,0.0,35,0.00,,,0.00,Wunderground v.1.15,2013-03-09 12:20:00,
2013-03-09 07:30:00,36.5,11.4,30.08,NE,53,0.0,0.0,35,0.00,,,0.00,Wunderground v.1.15,2013-03-09 12:30:00,
2013-03-09 07:40:00,36.3,12.5,30.08,NE,53,0.0,0.0,37,0.00,,,0.00,Wunderground v.1.15,2013-03-09 12:40:00,
2013-03-09 07:50:00,35.9,12.7,30.09,NE,54,0.0,1.0,38,0.00,,,0.00,Wunderground v.1.15,2013-03-09 12:50:00,
2013-03-09 08:00:00,35.8,12.0,30.09,NE,53,0.0,0.0,37,0.00,,,0.00,Wunderground v.1.15,2013-03-09 13:00:00,
2013-03-09 08:10:00,36.2,14.2,30.10,NE,53,0.0,0.0,40,0.00,,,0.00,Wunderground v.1.15,2013-03-09 13:10:00,
2013-03-09 08:20:00,36.6,13.9,30.09,NE,54,0.0,0.0,39,0.00,,,0.00,Wunderground v.1.15,2013-03-09 13:20:00,
2013-03-09 08:30:00,37.3,12.1,30.10,NE,53,0.0,1.0,35,0.00,,,0.00,Wunderground v.1.15,2013-03-09 13:30:00,
2013-03-09 08:40:00,38.2,13.6,30.11,NE,53,0.0,0.0,36,0.00,,,0.00,Wunderground v.1.15,2013-03-09 13:40:00,
2013-03-09 08:50:00,38.9,13.5,30.10,NE,53,0.0,0.0,35,0.00,,,0.00,Wunderground v.1.15,2013-03-09 13:50:00,
2013-03-09 09:00:00,39.6,14.2,30.10,NE,53,0.0,1.0,35,0.00,,,0.00,Wunderground v.1.15,2013-03-09 14:00:00,
2013-03-09 09:10:00,39.9,15.1,30.11,WNW,300,0.0,0.0,36,0.00,,,0.00,Wunderground v.1.15,2013-03-09 14:10:00,
2013-03-09 09:20:00,40.2,14.7,30.11,West,279,1.0,1.0,35,0.00,,,0.00,Wunderground v.1.15,2013-03-09 14:20:00,
2013-03-09 09:25:00,40.2,14.7,30.11,NNW,348,0.0,1.0,35,0.00,,,0.00,Wunderground v.1.15,2013-03-09 14:25:00,
2013-03-09 09:30:00,40.5,16.2,30.11,NNW,348,0.0,1.0,37,0.00,,,0.00,Wunderground v.1.15,2013-03-09 14:30:00,
2013-03-09 09:40:00,40.9,15.3,30.11,North,355,1.0,1.0,35,0.00,,,0.00,Wunderground v.1.15,2013-03-09 14:40:00,
2013-03-09 09:50:00,41.9,16.2,30.10,West,278,1.0,1.0,35,0.00,,,0.00,Wunderground v.1.15,2013-03-09 14:50:00,
2013-03-09 10:00:00,42.5,16.1,30.10,WNW,290,1.0,1.0,34,0.00,,,0.00,Wunderground v.1.15,2013-03-09 15:00:00,
2013-03-09 10:10:00,42.8,17.0,30.12,North,5,1.0,1.0,35,0.00,,,0.00,Wunderground v.1.15,2013-03-09 15:10:00,
2013-03-09 10:20:00,43.2,16.0,30.12,South,188,1.0,2.0,33,0.00,,,0.00,Wunderground v.1.15,2013-03-09 15:20:00,
2013-03-09 10:30:00,43.5,16.3,30.12,WSW,254,1.0,1.0,33,0.00,,,0.00,Wunderground v.1.15,2013-03-09 15:30:00,
2013-03-09 10:40:00,44.6,15.8,30.11,East,96,0.0,0.0,31,0.00,,,0.00,Wunderground v.1.15,2013-03-09 15:40:00,
2013-03-09 10:50:00,44.8,16.7,30.11,North,360,2.0,2.0,32,0.00,,,0.00,Wunderground v.1.15,2013-03-09 15:50:00,
2013-03-09 11:00:00,45.5,17.3,30.11,ENE,74,1.0,1.0,32,0.00,,,0.00,Wunderground v.1.15,2013-03-09 16:00:00,
2013-03-09 11:10:00,46.4,16.6,30.10,ENE,61,1.0,1.0,30,0.00,,,0.00,Wunderground v.1.15,2013-03-09 16:10:00,
2013-03-09 11:15:00,46.5,17.4,30.10,NE,43,1.0,1.0,31,0.00,,,0.00,Wunderground v.1.15,2013-03-09 16:15:00,
2013-03-09 11:25:00,48.6,18.5,30.10,WNW,284,1.0,1.0,30,0.00,,,0.00,Wunderground v.1.15,2013-03-09 16:25:00,
2013-03-09 11:30:00,48.9,17.2,30.10,West,275,1.0,1.0,28,0.00,,,0.00,Wunderground v.1.15,2013-03-09 16:30:00,
2013-03-09 11:40:00,49.6,16.9,30.09,West,259,1.0,1.0,27,0.00,,,0.00,Wunderground v.1.15,2013-03-09 16:40:00,
2013-03-09 11:50:00,49.6,17.8,30.08,NNE,28,1.0,1.0,28,0.00,,,0.00,Wunderground v.1.15,2013-03-09 16:50:00,
2013-03-09 12:00:00,51.1,19.1,30.08,WNW,302,0.0,1.0,28,0.00,,,0.00,Wunderground v.1.15,2013-03-09 17:00:00,
2013-03-09 12:10:00,52.8,19.7,30.07,WNW,284,1.0,1.0,27,0.00,,,0.00,Wunderground v.1.15,2013-03-09 17:10:00,
2013-03-09 12:20:00,52.9,20.6,30.07,West,273,1.0,1.0,28,0.00,,,0.00,Wunderground v.1.15,2013-03-09 17:20:00,
2013-03-09 12:25:00,53.3,20.1,30.07,West,264,1.0,1.0,27,0.00,,,0.00,Wunderground v.1.15,2013-03-09 17:25:00,
2013-03-09 12:30:00,53.9,19.8,30.07,North,5,1.0,1.0,26,0.00,,,0.00,Wunderground v.1.15,2013-03-09 17:30:00,
2013-03-09 12:40:00,53.9,19.8,30.07,WNW,299,1.0,1.0,26,0.00,,,0.00,Wunderground v.1.15,2013-03-09 17:40:00,
2013-03-09 12:50:00,54.7,20.4,30.06,West,259,1.0,1.0,26,0.00,,,0.00,Wunderground v.1.15,2013-03-09 17:50:00,
2013-03-09 13:00:00,54.8,21.4,30.06,WSW,257,2.0,2.0,27,0.00,,,0.00,Wunderground v.1.15,2013-03-09 18:00:00,
2013-03-09 13:10:00,54.4,20.2,30.06,SSE,156,1.0,1.0,26,0.00,,,0.00,Wunderground v.1.15,2013-03-09 18:10:00,
2013-03-09 13:20:00,54.8,19.6,30.05,SW,233,1.0,1.0,25,0.00,,,0.00,Wunderground v.1.15,2013-03-09 18:20:00,
2013-03-09 13:30:00,55.4,21.0,30.05,SW,221,1.0,4.0,26,0.00,,,0.00,Wunderground v.1.15,2013-03-09 18:30:00,
2013-03-09 13:40:00,56.0,21.6,30.04,SW,216,1.0,1.0,26,0.00,,,0.00,Wunderground v.1.15,2013-03-09 18:40:00,
2013-03-09 13:50:00,56.9,22.3,30.03,NNE,26,1.0,1.0,26,0.00,,,0.00,Wunderground v.1.15,2013-03-09 18:50:00,
2013-03-09 14:00:00,57.2,22.6,30.03,NNW,333,1.0,1.0,26,0.00,,,0.00,Wunderground v.1.15,2013-03-09 19:00:00,
2013-03-09 14:10:00,57.6,22.9,30.02,West,259,1.0,1.0,26,0.00,,,0.00,Wunderground v.1.15,2013-03-09 19:10:00,
2013-03-09 14:20:00,57.8,21.2,30.02,WSW,255,1.0,1.0,24,0.00,,,0.00,Wunderground v.1.15,2013-03-09 19:20:00,
2013-03-09 14:30:00,57.5,22.8,30.01,South,170,1.0,1.0,26,0.00,,,0.00,Wunderground v.1.15,2013-03-09 19:30:00,
2013-03-09 14:40:00,58.0,22.3,30.01,West,274,1.0,1.0,25,0.00,,,0.00,Wunderground v.1.15,2013-03-09 19:40:00,
2013-03-09 14:45:00,58.6,22.8,30.00,NNW,348,1.0,1.0,25,0.00,,,0.00,Wunderground v.1.15,2013-03-09 19:45:00,
2013-03-09 14:55:00,57.8,21.2,30.00,West,269,2.0,2.0,24,0.00,,,0.00,Wunderground v.1.15,2013-03-09 19:55:00,
2013-03-09 15:05:00,58.3,22.6,30.00,ENE,59,1.0,1.0,25,0.00,,,0.00,Wunderground v.1.15,2013-03-09 20:05:00,
2013-03-09 15:15:00,57.6,22.0,30.00,North,5,2.0,3.0,25,0.00,,,0.00,Wunderground v.1.15,2013-03-09 20:15:00,
2013-03-09 15:20:00,57.5,20.9,30.00,North,360,1.0,1.0,24,0.00,,,0.00,Wunderground v.1.15,2013-03-09 20:20:00,
2013-03-09 15:30:00,57.5,22.8,30.00,NNW,341,1.0,1.0,26,0.00,,,0.00,Wunderground v.1.15,2013-03-09 20:30:00,
2013-03-09 15:40:00,57.3,21.7,30.00,WSW,258,1.0,5.0,25,0.00,,,0.00,Wunderground v.1.15,2013-03-09 20:40:00,
2013-03-09 15:50:00,56.9,22.3,30.00,ENE,70,2.0,2.0,26,0.00,,,0.00,Wunderground v.1.15,2013-03-09 20:50:00,
2013-03-09 16:00:00,57.0,21.5,30.01,North,350,1.0,1.0,25,0.00,,,0.00,Wunderground v.1.15,2013-03-09 21:00:00,
2013-03-09 16:10:00,56.9,22.3,30.00,NNE,14,1.0,1.0,26,0.00,,,0.00,Wunderground v.1.15,2013-03-09 21:10:00,
2013-03-09 16:20:00,56.7,23.9,29.99,WSW,243,2.0,2.0,28,0.00,,,0.00,Wunderground v.1.15,2013-03-09 21:20:00,
2013-03-09 16:30:00,58.0,23.3,30.00,NE,34,0.0,0.0,26,0.00,,,0.00,Wunderground v.1.15,2013-03-09 21:30:00,
2013-03-09 16:35:00,59.0,24.1,29.99,NE,34,0.0,0.0,26,0.00,,,0.00,Wunderground v.1.15,2013-03-09 21:35:00,
2013-03-09 16:40:00,59.3,23.4,29.99,West,261,0.0,0.0,25,0.00,,,0.00,Wunderground v.1.15,2013-03-09 21:40:00,
2013-03-09 16:50:00,59.5,23.6,29.99,NNW,333,0.0,0.0,25,0.00,,,0.00,Wunderground v.1.15,2013-03-09 21:50:00,
2013-03-09 16:55:00,58.4,22.7,29.99,NE,40,1.0,3.0,25,0.00,,,0.00,Wunderground v.1.15,2013-03-09 21:55:00,
2013-03-09 17:00:00,57.2,22.6,30.00,NE,44,2.0,3.0,26,0.00,,,0.00,Wunderground v.1.15,2013-03-09 22:00:00,
2013-03-09 17:10:00,55.7,23.1,30.00,North,9,1.0,1.0,28,0.00,,,0.00,Wunderground v.1.15,2013-03-09 22:10:00,
2013-03-09 17:20:00,55.4,22.8,30.00,NNW,346,1.0,2.0,28,0.00,,,0.00,Wunderground v.1.15,2013-03-09 22:20:00,
2013-03-09 17:30:00,55.6,22.1,30.00,NNE,13,1.0,1.0,27,0.00,,,0.00,Wunderground v.1.15,2013-03-09 22:30:00,
2013-03-09 17:40:00,55.3,22.7,30.01,NNE,18,1.0,1.0,28,0.00,,,0.00,Wunderground v.1.15,2013-03-09 22:40:00,
2013-03-09 17:50:00,54.7,22.2,30.01,NNE,19,1.0,2.0,28,0.00,,,0.00,Wunderground v.1.15,2013-03-09 22:50:00,
2013-03-09 18:00:00,54.1,22.5,30.00,WNW,284,1.0,1.0,29,0.00,,,0.00,Wunderground v.1.15,2013-03-09 23:00:00,
2013-03-09 18:10:00,53.9,22.3,30.02,NNW,342,0.0,0.0,29,0.00,,,0.00,Wunderground v.1.15,2013-03-09 23:10:00,
2013-03-09 18:20:00,53.3,22.6,30.02,NNW,342,0.0,0.0,30,0.00,,,0.00,Wunderground v.1.15,2013-03-09 23:20:00,
2013-03-09 18:30:00,52.9,22.3,30.03,NNW,342,0.0,0.0,30,0.00,,,0.00,Wunderground v.1.15,2013-03-09 23:30:00,
2013-03-09 18:40:00,52.2,22.4,30.03,NNW,342,0.0,0.0,31,0.00,,,0.00,Wunderground v.1.15,2013-03-09 23:40:00,
2013-03-09 18:50:00,51.4,23.9,30.03,NNW,342,0.0,0.0,34,0.00,,,0.00,Wunderground v.1.15,2013-03-09 23:50:00,
2013-03-09 19:00:00,51.0,22.9,30.03,NNW,342,0.0,0.0,33,0.00,,,0.00,Wunderground v.1.15,2013-03-10 00:00:00,
2013-03-09 19:10:00,51.1,23.0,30.04,NNW,342,0.0,0.0,33,0.00,,,0.00,Wunderground v.1.15,2013-03-10 00:10:00,
2013-03-09 19:20:00,50.8,22.7,30.04,NNW,342,0.0,0.0,33,0.00,,,0.00,Wunderground v.1.15,2013-03-10 00:20:00,
2013-03-09 19:30:00,50.4,22.3,30.04,NNW,342,0.0,0.0,33,0.00,,,0.00,Wunderground v.1.15,2013-03-10 00:30:00,
2013-03-09 19:40:00,50.5,22.4,30.04,NNW,342,0.0,0.0,33,0.00,,,0.00,Wunderground v.1.15,2013-03-10 00:40:00,
2013-03-09 19:50:00,50.2,22.2,30.04,NNW,342,0.0,0.0,33,0.00,,,0.00,Wunderground v.1.15,2013-03-10 00:50:00,
2013-03-09 20:00:00,50.1,24.2,30.04,NNW,342,0.0,0.0,36,0.00,,,0.00,Wunderground v.1.15,2013-03-10 01:00:00,
2013-03-09 20:10:00,50.7,21.9,30.03,NNW,342,0.0,0.0,32,0.00,,,0.00,Wunderground v.1.15,2013-03-10 01:10:00,
2013-03-09 20:20:00,50.1,22.8,30.03,NNW,342,0.0,0.0,34,0.00,,,0.00,Wunderground v.1.15,2013-03-10 01:20:00,
2013-03-09 20:30:00,49.5,22.9,30.03,NNW,342,0.0,0.0,35,0.00,,,0.00,Wunderground v.1.15,2013-03-10 01:30:00,
2013-03-09 20:40:00,49.4,23.5,30.04,NNW,342,0.0,0.0,36,0.00,,,0.00,Wunderground v.1.15,2013-03-10 01:40:00,
2013-03-09 20:50:00,49.5,22.9,30.04,NNW,342,0.0,0.0,35,0.00,,,0.00,Wunderground v.1.15,2013-03-10 01:50:00,
2013-03-09 21:00:00,49.5,24.3,30.03,NNW,342,0.0,0.0,37,0.00,,,0.00,Wunderground v.1.15,2013-03-10 02:00:00,
2013-03-09 21:10:00,49.1,23.3,30.04,NNW,342,0.0,0.0,36,0.00,,,0.00,Wunderground v.1.15,2013-03-10 02:10:00,
2013-03-09 21:20:00,48.2,23.7,30.04,NNW,342,0.0,0.0,38,0.00,,,0.00,Wunderground v.1.15,2013-03-10 02:20:00,
2013-03-09 21:30:00,48.0,22.9,30.04,NNW,342,0.0,0.0,37,0.00,,,0.00,Wunderground v.1.15,2013-03-10 02:30:00,
2013-03-09 21:40:00,47.6,23.2,30.04,NNW,342,0.0,0.0,38,0.00,,,0.00,Wunderground v.1.15,2013-03-10 02:40:00,
2013-03-09 21:50:00,47.4,23.0,30.05,NNW,342,0.0,0.0,38,0.00,,,0.00,Wunderground v.1.15,2013-03-10 02:50:00,
2013-03-09 22:00:00,47.4,23.0,30.05,NNW,342,0.0,0.0,38,0.00,,,0.00,Wunderground v.1.15,2013-03-10 03:00:00,
2013-03-09 22:10:00,47.0,22.7,30.04,NNW,342,0.0,0.0,38,0.00,,,0.00,Wunderground v.1.15,2013-03-10 03:10:00,
2013-03-09 22:20:00,46.5,22.2,30.04,NNW,342,0.0,0.0,38,0.00,,,0.00,Wunderground v.1.15,2013-03-10 03:20:00,
2013-03-09 22:30:00,46.5,21.6,30.04,NNW,342,0.0,0.0,37,0.00,,,0.00,Wunderground v.1.15,2013-03-10 03:30:00,
2013-03-09 22:40:00,46.2,22.0,30.04,NNW,342,0.0,0.0,38,0.00,,,0.00,Wunderground v.1.15,2013-03-10 03:40:00,
2013-03-09 22:50:00,45.7,22.1,30.04,NNW,342,0.0,0.0,39,0.00,,,0.00,Wunderground v.1.15,2013-03-10 03:50:00,
2013-03-09 23:00:00,45.4,21.9,30.04,NNW,342,0.0,0.0,39,0.00,,,0.00,Wunderground v.1.15,2013-03-10 04:00:00,
2013-03-09 23:10:00,45.5,21.9,30.01,NNW,342,0.0,0.0,39,0.00,,,0.00,Wunderground v.1.15,2013-03-10 04:10:00,
2013-03-09 23:20:00,45.4,22.5,30.02,NNW,342,0.0,0.0,40,0.00,,,0.00,Wunderground v.1.15,2013-03-10 04:20:00,
2013-03-09 23:30:00,45.4,21.9,30.01,NNW,342,0.0,0.0,39,0.00,,,0.00,Wunderground v.1.15,2013-03-10 04:30:00,
2013-03-09 23:40:00,45.4,21.9,30.01,NNW,342,0.0,0.0,39,0.00,,,0.00,Wunderground v.1.15,2013-03-10 04:40:00,
2013-03-09 23:50:00,44.9,22.6,30.00,NNW,342,0.0,0.0,41,0.00,,,0.00,Wunderground v.1.15,2013-03-10 04:50:00,